Temp
27 28 28 28 29 29 30 31 31 28 28 27 27 27 27 27 27 27 27 27 26 27
27 27 29 29 29 29 30 31 30 29 28 28 27 27 27 27 28 28 27 27 26 26
28 27 28 29 28 29 30 29 29 28 28 27 27 27 26 27 28 26 27 27 26 26
30 29 27 29 28 28 29 29 28 27 27 27 27 27 26 27 27 26 26 26 25 25
31 30 30 29 29 29 28 28 28 27 26 26 27 27 27 27 27 27 26 25 25 25
33 32 31 31 30 30 28 28 29 27 26 26 26 27 27 27 26 26 26 26 25 26
34 33 33 32 32 31 30 28 28 29 27 27 27 27 27 27 27 26 26 25 25 26
35 35 34 33 32 32 31 29 28 28 28 28 27 28 28 27 27 27 25 25 25 25
35 34 34 33 31 31 30 30 28 28 28 28 28 28 28 27 28 27 25 25 25 25
33 32 32 32 30 30 29 29 28 27 28 27 27 28 27 27 26 28 26 25 25 25
31 31 30 30 29 28 28 28 27 27 27 27 26 25 25 26 26 27 27 26 25 25
30 30 29 29 28 27 27 27 27 26 26 25 23 23 25 25 24 26 26 25 24 24
29 29 28 28 27 27 27 27 26 25 24 23 22 22 22 23 25 26 26 25 24 23
28 28 28 27 27 27 26 26 25 23 22 20 20 21 22 23 23 25 26 26 22 20
Height
782 784 787 789 790 793 793 794 797 800 804 807 808 810 811 811 809 807 807 807 805 804
776 779 781 784 787 789 791 792 795 799 802 804 806 808 808 808 807 808 808 807 806 806
769 773 776 780 783 785 788 791 793 796 800 803 804 805 805 804 804 805 805 805 804 804
762 767 771 774 778 781 785 787 790 794 797 799 800 802 804 804 804 805 804 803 802 803
755 760 763 768 771 775 780 784 787 790 793 795 797 799 799 800 801 803 803 803 803 802
746 752 756 759 765 769 774 779 782 785 787 789 791 793 795 795 797 798 799 799 801 801
737 742 747 752 756 762 766 771 774 776 779 783 787 789 790 792 793 792 792 793 795 795
726 731 736 742 749 754 759 765 769 772 776 780 783 784 784 786 786 787 789 790 791 793
720 727 731 734 739 745 751 756 760 767 771 774 775 772 771 775 776 779 784 786 788 789
714 719 724 729 734 739 743 750 755 759 760 758 754 748 750 761 772 774 777 781 784 785
710 713 718 723 728 734 739 741 744 748 747 750 755 754 753 750 761 768 772 776 778 782
703 707 711 714 719 725 729 733 735 735 739 747 750 756 756 754 761 765 771 775 777 778
694 700 707 713 717 719 725 730 734 738 742 743 748 757 758 761 764 767 773 775 775 774
689 694 701 707 713 717 721 728 737 743 745 750 744 750 753 760 762 759 765 771 771 772
Wind_Speed
26 24 22 20 17 16 15 15 11 15 14 12 9 9 9 9 12 7 7 8 9 6
26 26 23 21 20 19 16 14 11 13 12 11 11 10 10 11 11 8 8 11 11 9
27 26 24 22 22 19 18 18 10 15 13 12 12 12 12 12 12 9 10 10 11 9
28 26 26 25 23 23 19 17 17 15 14 14 15 14 13 11 12 10 11 11 9 8
29 27 27 26 26 23 22 20 17 15 17 17 16 15 14 13 13 10 12 13 9 8
30 30 29 28 26 25 22 21 19 19 20 19 18 16 15 15 12 13 12 9 8 8
33 33 31 29 27 25 25 23 22 22 22 19 16 15 15 13 13 12 11 9 9 8
35 35 33 31 28 26 24 24 23 21 18 15 13 14 15 15 13 12 10 9 9 10
31 30 29 30 32 28 25 26 25 20 16 14 13 16 19 18 14 9 8 10 11 10
29 30 29 28 27 29 29 26 22 21 21 25 28 31 25 18 15 13 11 12 11 11
26 28 29 27 27 28 28 29 29 28 31 27 24 23 16 20 17 12 10 12 12 12
33 30 32 32 32 32 32 31 32 35 31 22 18 16 16 15 11 10 10 10 10 11
30 29 28 28 30 31 30 29 30 24 18 17 20 15 13 10 6 6 10 12 14 16
25 27 28 28 29 30 29 26 20 13 12 13 16 17 12 8 5 6 8 12 4 8
Wind_Direction
212 218 222 219 229 215 229 212 210 187 208 219 235 230 238 251 251 204 242 248 263 284
210 216 219 222 214 229 225 228 212 205 209 223 227 231 238 248 262 268 271 273 270 280
209 211 217 217 223 218 223 226 235 205 218 229 232 235 236 251 262 252 260 271 300 289
209 211 213 216 215 222 220 222 222 224 217 225 231 236 243 260 276 273 267 271 281 275
208 209 211 215 216 215 218 220 218 217 221 227 230 236 244 252 274 264 272 276 268 259
206 210 215 214 218 212 210 213 215 213 218 221 225 230 235 238 253 260 269 266 268 253
211 210 213 217 214 214 205 204 211 214 213 220 227 234 239 249 254 249 243 239 236 229
211 214 210 209 213 209 206 199 209 215 217 213 226 238 239 241 251 246 247 233 217 229
214 216 215 207 201 201 199 196 201 207 206 205 222 232 224 231 235 222 235 225 227 230
211 208 211 209 198 194 190 190 190 196 191 198 205 213 203 210 219 248 215 222 236 239
217 209 205 202 195 189 186 186 189 191 195 200 212 219 193 178 196 236 221 222 221 238
215 211 203 197 190 185 185 189 190 191 191 189 187 197 182 171 179 201 222 232 232 240
213 212 206 200 191 186 188 192 191 185 178 175 159 171 165 160 175 214 233 233 231 234
210 206 202 195 191 186 182 181 182 176 153 141 138 153 148 166 186 223 251 260 157 188